Location: Unspecified
(0.0000°N, 0.0000°E)
Time: 04:40:37
(UTC+02:00)

ADEOS II - Visible Passes

Search period start: 24 July 2017 00:00
Search period end: 03 August 2017 00:00
Orbit: 800 x 801 km, 98.4° (Epoch: 22 July)

Date Brightness Start Highest point End Pass type
(mag) Time Alt. Az. Time Alt. Az. Time Alt. Az.
24 Jul 4.4 06:01:43 10° NNW 06:02:04 12° NNW 06:02:04 12° NNW visible
25 Jul 4.5 05:34:39 10° N 05:35:16 13° N 05:35:16 13° N visible
26 Jul 4.8 05:08:15 10° NNE 05:08:30 11° NNE 05:08:30 11° NNE visible
28 Jul 4.5 05:55:36 10° NNW 05:55:51 11° NNW 05:55:51 11° NNW visible
29 Jul 4.6 05:28:42 10° N 05:29:05 12° N 05:29:05 12° N visible
01 Aug 4.6 05:49:32 10° N 05:49:39 11° NNW 05:49:39 11° NNW visible
02 Aug 4.8 05:22:47 10° N 05:22:52 10° N 05:22:52 10° N visible
